Home   Weather   Brades   Past weeks
Flag for Montserrat

Past Weather in Brades, Montserrat — Yesterday and Last 2 Weeks

Now
82 °F

Scattered clouds.


Feels Like: 89 °F
Forecast: N/A
Wind: 12 mph from East

Location: Vc Bird International Antigua Airport

Current Time: Jun 25, 2019 at 6:02:05 pm

Latest Report: Jun 25, 2019 at 5:00 pm


Visibility: N/A

Pressure: 30.01 "Hg

Humidity: 79%

Dew Point: 75 °F

Location of BradesLocation

Past Weather in Brades — Graph

°F

Brades Temperature Yesterday

Maximum temperature yesterday: 84 °F (at 1:00 pm)
Minimum temperature yesterday: 79 °F (at 6:00 am)
Average temperature yesterday: 81 °F

High & Low Weather Summary for the Past Weeks

 TemperatureHumidityPressure
High86 °F (Jun 17, 11:00 am)89% (Jun 15, 5:00 pm)30.12 "Hg (Jun 15, 5:00 pm)
Low79 °F (Jun 10, 9:00 pm)62% (Jun 22, 11:00 am)29.98 "Hg (Jun 12, 2:00 am)
Average82 °F77%30.05 "Hg
* Reported Jun 10 5:00 pm — Jun 25 5:00 pm, Brades. Weather by CustomWeather, © 2019

Note: Actual official high and low records may vary slightly from our data, if they occured in-between our weather recording intervals... More about our weather records

Advertising

Brades Weather History for the Previous 24 Hours

Scroll right to see more
 ConditionsComfort  
Time TempWeatherWind HumidityBarometerVisibility
5:00 pm
Tue, Jun 25
82 °FScattered clouds.12 mph79%30.01 "HgN/A
4:00 pm84 °FScattered clouds.9 mph74%30.01 "HgN/A
3:00 pm86 °FScattered clouds.10 mph70%30.01 "HgN/A
2:00 pm86 °FScattered clouds.12 mph70%30.01 "HgN/A
1:00 pm86 °FPassing clouds.14 mph70%30.01 "HgN/A
12:00 pm84 °FPassing clouds.13 mph70%30.04 "HgN/A
11:00 am86 °FPassing clouds.12 mph66%30.04 "HgN/A
10:00 am84 °FPassing clouds.13 mph70%30.01 "HgN/A
9:00 am84 °FPassing clouds.12 mph70%30.01 "HgN/A
8:00 am82 °FPassing clouds.9 mph79%30.01 "HgN/A
7:00 am82 °FPassing clouds.9 mph74%30.01 "HgN/A
6:00 am81 °FPassing clouds.6 mph79%29.98 "HgN/A
5:00 am81 °FPassing clouds.7 mph79%29.98 "HgN/A
4:00 am81 °FPassing clouds.8 mph79%30.01 "HgN/A
3:00 am81 °FPassing clouds.6 mph84%30.01 "HgN/A
2:00 am81 °FPassing clouds.5 mph84%30.01 "HgN/A
1:00 am81 °FPassing clouds.9 mph84%30.01 "HgN/A
12:00 am82 °FPassing clouds.9 mph79%30.04 "HgN/A
11:00 pm
Mon, Jun 24
81 °FPassing clouds.8 mph89%30.04 "HgN/A
10:00 pm81 °FPassing clouds.7 mph84%30.04 "HgN/A
9:00 pm81 °FPassing clouds.7 mph84%30.01 "HgN/A
8:00 pm81 °FPassing clouds.3 mph84%30.01 "HgN/A
7:00 pm81 °FPassing clouds.7 mph84%30.01 "HgN/A
6:00 pm82 °FPassing clouds.6 mph79%29.98 "HgN/A
Weather by CustomWeather, © 2019

See weather overview